Location: Boiro
(42.6475°N, 8.8834°W)
Time: 05:32:12
(UTC+01:00)

Transit 4A - Pass Details

Date: 05 December 2021
Orbit: 864 x 980 km, 66.8° (Epoch: 17 January)

Event Time Altitude Azimuth Distance (km) Brightness Sun altitude
Exits shadow 06:15:00 44° 204° (SSW) 1,311 8.5 -27.8°
Drops below altitude 10° 06:19:42 10° 171° (S) 2,720 10.5 -26.9°
Sets 06:22:20 0° 167° (SSE) 3,667 11.3 -26.4°
